Regional Weather Roundup
Issued by NWS

Home | Current Version | Previous Version | Graphics & Text | Print | Product List | Glossary On
Versions: 1 2 3 4 5 6 7 8 9 10 11 12 13 14 15 16 17 18 19 20 21 22 23 24 25 26 27 28 29 30 31 32 33 34 35 36 37 38 39 40 41 42 43 44 45 46 47 48 49 50
000
ASUS43 KDMX 291608
RWRIA

WEATHER ROUNDUP FOR IOWA
NATIONAL WEATHER SERVICE DES MOINES IA
1100 AM CDT FRI APR 29 2016

NOTE: "FAIR" INDICATES FEW OR NO CLOUDS BELOW 12,000 FEET WITH NO
SIGNIFICANT WEATHER AND/OR OBSTRUCTIONS TO VISIBILITY.

* - THESE STATIONS ARE NOT NWS STATIONS...THUS NOT UNDER NWS
QUALITY CONTROL.  THEY ALSO DO NOT REPORT WEATHER SUCH
AS PRECIPITATION OR FOG.

IAZ001>003-012>014-020>022-031>034-043>046-291700-
   NORTHWEST IOWA

CITY           SKY/WX    TMP DP  RH WIND       PRES   REMARKS
CARROLL *      CLOUDY    45  41  87 E12       30.13R
CHEROKEE *     CLOUDY    43  39  87 NE10      30.12R
DENISON *      CLOUDY    43  39  87 E7G14     30.12R
LE MARS *      CLOUDY    45  39  81 NE12      30.12R
ORANGE CITY *  CLOUDY    41  37  87 NE9       30.11R
SHELDON *      CLOUDY    41  39  93 NE17G24   30.10R
SIOUX CITY     CLOUDY    45  39  79 NE8       30.12R
SPENCER        CLOUDY    43  36  76 NE17      30.12R
$$

IAZ055>058-069>071-079>083-090>094-291700-
   SOUTHWEST IOWA

CITY           SKY/WX    TMP DP  RH WIND       PRES   REMARKS
ATLANTIC *     CLOUDY    46  41  81 VRB6      30.11F
AUDUBON *      CLOUDY    45  39  81 NE9       30.13S
CLARINDA *       N/A    N/A N/A N/A MISG        N/A
COUNCIL BLFS *   N/A     45  39  81 E10       30.10F
CRESTON *      CLOUDY    48  41  76 NE14      30.09F
HARLAN  *      CLOUDY    45  41  87 E10       30.15F
LAMONI         CLOUDY    48  44  86 NE10      30.07S
RED OAK *      CLOUDY    48  41  76 NE9       30.09F
SHENANDOAH *   CLOUDY    48  43  81 NE12      30.09S
$$

IAZ047>049-059>061-072>074-084-291700-
   CENTRAL IOWA

CITY           SKY/WX    TMP DP  RH WIND       PRES   REMARKS
AMES           CLOUDY    46  41  82 E8        30.13R
ANKENY *       CLOUDY    46  43  87 NE8       30.12S
BOONE *        CLOUDY    45  41  87 E9        30.12R
CHARITON *     CLOUDY    50  43  76 NE10      30.08F
DES MOINES     CLOUDY    47  40  76 E6        30.12S
GRINNELL*      CLOUDY    45  41  87 NE7       30.12S
KNOXVILLE *    CLOUDY    46  43  87 NE9       30.10S
MARSHALLTOWN   CLOUDY    46  39  76 NE9       30.12R
NEWTON *       CLOUDY    45  43  93 NE9       30.12R
PELLA *        CLOUDY    46  43  87 NE5       30.13R
$$

IAZ004>006-015-016-023>025-035-036-291700-
   NORTH CENTRAL IOWA

CITY           SKY/WX    TMP DP  RH WIND       PRES   REMARKS
ALGONA *       CLOUDY    41  39  93 NE16      30.13R
CLARION *      CLOUDY    45  41  87 E16       30.13R
ESTHERVILLE    CLOUDY    41  38  89 NE16      30.12R
FORT DODGE *   CLOUDY    46  37  71 NE12G20   30.12R
MASON CITY     CLOUDY    44  39  82 NE17      30.13R
FOREST CITY *  CLOUDY    43  37  81 N12       30.13R
WEBSTER CITY * CLOUDY    46  41  81 NE13      30.12R
IOWA FALLS *   CLOUDY    45  39  81 NE10G18   30.15R
$$

IAZ007>011-017>019-026>030-037>042-050>054-066-291700-
   NORTHEAST IOWA

CITY           SKY/WX    TMP DP  RH WIND       PRES   REMARKS
CEDAR RAPIDS   CLOUDY    46  41  82 NE8       30.10F
CHARLES CITY * CLOUDY    43  39  87 NE16G23   30.12R
CLINTON *      CLOUDY    47  41  80 E9        30.11F
DECORAH *      CLOUDY    45  37  76 NE12G17   30.10S
DUBUQUE        CLOUDY    45  39  79 NE6       30.11S
MONTICELLO *   CLOUDY    46  41  81 NE13      30.09F
OELWEIN *      CLOUDY    45  39  81 NE12      30.13R
WATERLOO       CLOUDY    46  37  71 NE9       30.13R
$$

IAZ064-065-067-068-078-291700-
   EAST CENTRAL IOWA

CITY           SKY/WX    TMP DP  RH WIND       PRES   REMARKS
DAVENPORT      CLOUDY    46  39  76 NE8       30.12R
IOWA CITY      CLOUDY    46  40  79 NE7       30.13F
MT. PLEASANT * CLOUDY    50  45  81 NE8       30.11F
MUSCATINE *    CLOUDY    48  39  71 NE5       30.13S
QUAD CITIES    CLOUDY    48  40  73 NE3       30.12R
$$

IAZ062-063-075>077-085>089-095>099-291700-
   SOUTHEAST IOWA

CITY           SKY/WX    TMP DP  RH WIND       PRES   REMARKS
BURLINGTON     CLOUDY    50  45  83 N10       30.09F
FAIRFIELD *    CLOUDY    48  43  81 E7        30.10F
FORT MADISON * CLOUDY    48  45  87 NE8       30.10F
KEOKUK *       CLOUDY    50  45  81 NE8       30.08F
OSKALOOSA *    CLOUDY    46  43  87 NE8       30.12R
OTTUMWA        CLOUDY    48  43  82 NE9       30.10F
WASHINGTON *   CLOUDY    46  45  93 E9        30.13S
$$

ABBREVIATIONS USED IN REMARKS
   TC - TEMPERATURES IN CELSIUS
  WCI - WIND CHILL INDEX
   HX - HEAT INDEX
  VSB - VISIBILITY
$$




USA.gov is the U.S. government's official web portal to all federal, state and local government web resources and services.